Eveleth, MN

9:33 AM CDT on June 29, 2017 (GMT -0500)
Eveleth-Virginia Municipal

Weather History for KEVM - April, 2014

Change the Weather History Date:

Tuesday, April 29, 2014

  Actual Average Record
Temperature  
Mean Temperature 38 °F -  
Max Temperature 44 °F 58 °F 82 °F (2001)
Min Temperature 33 °F 31 °F 21 °F (2008)
Degree Days  
Heating Degree Days 26    
Moisture  
Dew Point 26 °F    
Average Humidity 63    
Maximum Humidity 100    
Minimum Humidity 29    
Precipitation  
Precipitation 0.13 in - - ()
Sea Level Pressure  
Sea Level Pressure 29.89 in    
Wind  
Wind Speed 15 mph (NE)    
Max Wind Speed 22 mph    
Max Gust Speed 32 mph    
Visibility 10 miles    
Events Rain    
Averages and records for this station are not official NWS values.
T = Trace of Precipitation, MM = Missing Value Source: NWS Daily Summary

Daily Weather History Graph

Daily Weather History Graph

Search for Another Location

Airport or City:

Trip Planner

Search our weather history database for the weather conditions in past years. The results will help you decide how hot, cold, wet, or windy it might be!

Date:

Astronomy

Apr. 29, 2014 Rise Set
Actual Time 5:56 AM CDT 8:18 PM CDT
Civil Twilight 5:22 AM CDT 8:53 PM CDT
Nautical Twilight 4:40 AM CDT 9:35 PM CDT
Astronomical Twilight 3:52 AM CDT 10:24 PM CDT
Moon 6:15 AM CDT 9:00 PM CDT
Length of Visible Light 15h 30m
Length of Day
14h 22m
New Moon, 0% of the Moon is Illuminated
Apr 29
New Moon
May 6
First Quarter
May 14
Full
May 21
Last Quarter
May 28
New

Hourly Weather History & Observations

Time (CDT) Temp. Windchill Dew Point Humidity Pressure Visibility Wind Dir Wind Speed Gust Speed Precip Events Conditions
12:14 AM 44.6 °F 37.2 °F 14.0 °F 29% 29.91 in 10.0 mi East 17.3 mph 32.2 mph N/A   Clear
12:34 AM 44.6 °F 37.8 °F 14.0 °F 29% 29.91 in 10.0 mi East 15.0 mph 25.3 mph N/A   Clear
12:54 AM 44.6 °F 37.4 °F 14.0 °F 29% 29.92 in 10.0 mi ENE 16.1 mph 28.8 mph N/A   Clear
1:14 AM 42.8 °F 35.4 °F 14.0 °F 31% 29.92 in 10.0 mi East 15.0 mph 27.6 mph N/A   Clear
1:34 AM 42.8 °F 35.1 °F 14.0 °F 31% 29.92 in 10.0 mi East 16.1 mph 31.1 mph N/A   Clear
1:54 AM 42.8 °F 33.8 °F 14.0 °F 31% 29.92 in 10.0 mi East 21.9 mph 28.8 mph N/A   Clear
2:14 AM 42.8 °F 36.2 °F 15.8 °F 34% 29.91 in 10.0 mi ENE 12.7 mph 25.3 mph N/A   Clear
2:34 AM 42.8 °F 35.4 °F 15.8 °F 34% 29.92 in 10.0 mi East 15.0 mph 29.9 mph N/A   Clear
2:54 AM 42.8 °F 35.8 °F 17.6 °F 36% 29.92 in 10.0 mi East 13.8 mph 28.8 mph N/A   Clear
3:13 AM 42.8 °F 36.6 °F 17.6 °F 36% 29.93 in 10.0 mi ENE 11.5 mph 25.3 mph N/A   Clear
3:34 AM 42.8 °F 36.2 °F 17.6 °F 36% 29.92 in 10.0 mi ENE 12.7 mph 23.0 mph N/A   Clear
3:54 AM 39.2 °F 32.5 °F 17.6 °F 42% 29.91 in 10.0 mi NE 10.4 mph 18.4 mph N/A   Clear
4:13 AM 39.2 °F 32.0 °F 17.6 °F 42% 29.91 in 10.0 mi ENE 11.5 mph 17.3 mph N/A   Clear
4:34 AM 39.2 °F 31.6 °F 19.4 °F 45% 29.91 in 10.0 mi NE 12.7 mph - N/A   Clear
4:54 AM 37.4 °F 29.8 °F 19.4 °F 48% 29.91 in 10.0 mi ENE 11.5 mph 17.3 mph N/A   Clear
5:13 AM 37.4 °F 29.8 °F 19.4 °F 48% 29.90 in 10.0 mi NE 11.5 mph 19.6 mph N/A   Clear
5:34 AM 35.6 °F 27.5 °F 19.4 °F 52% 29.90 in 10.0 mi NE 11.5 mph 18.4 mph N/A   Clear
5:54 AM 35.6 °F 28.0 °F 21.2 °F 56% 29.90 in 10.0 mi NE 10.4 mph 18.4 mph N/A   Clear
6:13 AM 35.6 °F 26.2 °F 21.2 °F 56% 29.90 in 10.0 mi NE 15.0 mph 20.7 mph N/A   Clear
6:34 AM 35.6 °F 26.2 °F 21.2 °F 56% 29.90 in 10.0 mi NE 15.0 mph 19.6 mph N/A   Clear
6:54 AM 35.6 °F 26.2 °F 21.2 °F 56% 29.90 in 10.0 mi NE 15.0 mph 24.2 mph N/A   Clear
7:13 AM 35.6 °F 26.2 °F 21.2 °F 56% 29.90 in 10.0 mi NE 15.0 mph 23.0 mph N/A   Clear
7:34 AM 35.6 °F 25.9 °F 23.0 °F 60% 29.90 in 10.0 mi NE 16.1 mph 20.7 mph N/A   Clear
7:54 AM 35.6 °F 25.5 °F 23.0 °F 60% 29.90 in 10.0 mi NE 17.3 mph 25.3 mph N/A   Clear
8:13 AM 35.6 °F 25.2 °F 23.0 °F 60% 29.90 in 10.0 mi NE 18.4 mph 25.3 mph N/A   Clear
8:34 AM 35.6 °F 27.1 °F 23.0 °F 60% 29.90 in 10.0 mi NE 12.7 mph 23.0 mph N/A   Scattered Clouds
8:54 AM 35.6 °F 26.2 °F 23.0 °F 60% 29.90 in 10.0 mi NE 15.0 mph 19.6 mph N/A   Scattered Clouds
9:13 AM 35.6 °F 26.2 °F 23.0 °F 60% 29.91 in 10.0 mi NE 15.0 mph 23.0 mph N/A   Mostly Cloudy
9:34 AM 35.6 °F 25.9 °F 23.0 °F 60% 29.89 in 10.0 mi NNE 16.1 mph 26.5 mph N/A   Mostly Cloudy
9:54 AM 35.6 °F 27.1 °F 23.0 °F 60% 29.90 in 10.0 mi NE 12.7 mph 24.2 mph N/A   Mostly Cloudy
10:13 AM 37.4 °F 27.2 °F 23.0 °F 56% 29.91 in 10.0 mi NE 19.6 mph 24.2 mph N/A   Scattered Clouds
10:34 AM 39.2 °F 29.8 °F 23.0 °F 52% 29.91 in 10.0 mi NE 18.4 mph 23.0 mph N/A   Scattered Clouds
10:54 AM 41.0 °F 32.5 °F 23.0 °F 49% 29.91 in 10.0 mi NE 17.3 mph 25.3 mph N/A   Scattered Clouds
11:13 AM 39.2 °F 30.2 °F 23.0 °F 52% 29.90 in 10.0 mi NE 17.3 mph 25.3 mph N/A   Scattered Clouds
11:34 AM 41.0 °F 33.1 °F 24.8 °F 53% 29.89 in 10.0 mi NE 15.0 mph 23.0 mph N/A   Scattered Clouds
11:53 AM 42.8 °F 34.5 °F 24.8 °F 49% 29.88 in 10.0 mi NE 18.4 mph 23.0 mph N/A   Scattered Clouds
12:14 PM 42.8 °F 35.4 °F 24.8 °F 49% 29.87 in 10.0 mi NE 15.0 mph 24.2 mph N/A   Scattered Clouds
12:34 PM 42.8 °F 34.0 °F 26.6 °F 53% 29.86 in 10.0 mi NE 20.7 mph 29.9 mph N/A   Scattered Clouds
12:53 PM 42.8 °F 34.8 °F 26.6 °F 53% 29.86 in 10.0 mi NE 17.3 mph 24.2 mph N/A   Scattered Clouds
1:14 PM 42.8 °F 34.3 °F 26.6 °F 53% 29.85 in 10.0 mi NNE 19.6 mph 26.5 mph N/A   Mostly Cloudy
1:34 PM 42.8 °F 34.3 °F 26.6 °F 53% 29.84 in 10.0 mi NE 19.6 mph 28.8 mph N/A   Overcast
1:53 PM 44.6 °F 37.4 °F 26.6 °F 49% 29.83 in 10.0 mi NE 16.1 mph 24.2 mph N/A   Overcast
2:14 PM 44.6 °F 37.4 °F 28.4 °F 53% 29.84 in 10.0 mi NE 16.1 mph 31.1 mph N/A   Overcast
2:34 PM 44.6 °F 36.4 °F 28.4 °F 53% 29.84 in 10.0 mi NE 20.7 mph 28.8 mph N/A   Overcast
2:53 PM 44.6 °F 36.6 °F 28.4 °F 53% 29.85 in 10.0 mi ENE 19.6 mph 29.9 mph N/A   Overcast
3:14 PM 42.8 °F 35.1 °F 30.2 °F 61% 29.86 in 10.0 mi NE 16.1 mph 27.6 mph N/A   Light Drizzle
3:34 PM 42.8 °F 34.5 °F 32.0 °F 66% 29.85 in 10.0 mi NE 18.4 mph 25.3 mph N/A   Overcast
4:14 PM 39.2 °F 31.2 °F 32.0 °F 75% 29.86 in 5.0 mi NE 13.8 mph 24.2 mph N/A Rain Light Rain
4:33 PM 39.2 °F 31.2 °F 33.8 °F 81% 29.87 in 7.0 mi NE 13.8 mph 24.2 mph 0.01 in Rain Light Rain
4:54 PM 39.2 °F 33.0 °F 35.6 °F 87% 29.87 in 10.0 mi NE 9.2 mph 23.0 mph 0.02 in Rain Light Rain
5:14 PM 37.4 °F 29.3 °F 33.8 °F 87% 29.88 in 10.0 mi NE 12.7 mph 18.4 mph 0.01 in Rain Light Rain
5:33 PM 37.4 °F 30.3 °F 35.6 °F 93% 29.88 in 10.0 mi NE 10.4 mph 17.3 mph 0.02 in Rain Light Rain
5:54 PM 35.6 °F 26.2 °F 33.8 °F 93% 29.88 in 10.0 mi NNE 15.0 mph 18.4 mph 0.02 in Rain Light Rain
6:14 PM 35.6 °F 27.5 °F 33.8 °F 93% 29.89 in 10.0 mi NNE 11.5 mph 17.3 mph 0.01 in Rain Light Rain
6:33 PM 35.6 °F 28.0 °F 33.8 °F 93% 29.89 in 10.0 mi NNE 10.4 mph 21.9 mph 0.01 in Rain Light Rain
6:54 PM 35.6 °F 27.1 °F 33.8 °F 93% 29.89 in 10.0 mi NNE 12.7 mph 21.9 mph 0.02 in Rain Light Rain
7:14 PM 35.6 °F 27.1 °F 33.8 °F 93% 29.89 in 7.0 mi NNE 12.7 mph 19.6 mph N/A Rain Light Rain
7:33 PM 35.6 °F 27.5 °F 33.8 °F 93% 29.89 in 7.0 mi NNE 11.5 mph 19.6 mph 0.02 in Rain Light Rain
7:54 PM 35.6 °F 29.2 °F 35.6 °F 100% 29.89 in 7.0 mi NNE 8.1 mph 17.3 mph 0.03 in Rain Light Rain
8:14 PM 33.8 °F 24.8 °F 32.0 °F 93% 29.88 in 7.0 mi NNE 12.7 mph 17.3 mph 0.01 in Rain Light Rain
8:34 PM 33.8 °F 25.8 °F 32.0 °F 93% 29.88 in 10.0 mi NNE 10.4 mph 17.3 mph 0.02 in Rain Light Rain
8:54 PM 33.8 °F 25.8 °F 32.0 °F 93% 29.88 in 10.0 mi NNE 10.4 mph 18.4 mph 0.02 in Rain Light Rain
9:14 PM 33.8 °F 25.8 °F 32.0 °F 93% 29.88 in 10.0 mi NNE 10.4 mph 17.3 mph 0.01 in Rain Light Rain
9:34 PM 33.8 °F 25.8 °F 32.0 °F 93% 29.88 in 10.0 mi NNE 10.4 mph 17.3 mph 0.01 in Rain Light Rain
9:53 PM 33.8 °F 25.3 °F 32.0 °F 93% 29.87 in 10.0 mi North 11.5 mph 16.1 mph 0.01 in   Overcast
10:14 PM 33.8 °F 25.8 °F 32.0 °F 93% 29.87 in 10.0 mi North 10.4 mph 16.1 mph 0.01 in   Overcast
10:34 PM 33.8 °F 25.3 °F 32.0 °F 93% 29.86 in 10.0 mi NNE 11.5 mph 19.6 mph 0.01 in   Overcast
10:54 PM 33.8 °F 25.8 °F 32.0 °F 93% 29.85 in 10.0 mi NNE 10.4 mph 18.4 mph 0.01 in   Overcast
11:14 PM 33.8 °F 26.4 °F 32.0 °F 93% 29.85 in 10.0 mi North 9.2 mph - N/A   Overcast
11:33 PM 33.8 °F 24.8 °F 32.0 °F 93% 29.84 in 10.0 mi NNE 12.7 mph 18.4 mph N/A   Overcast
11:54 PM 33.8 °F 26.4 °F 32.0 °F 93% 29.84 in 10.0 mi NNE 9.2 mph 16.1 mph N/A   Overcast